Temp
5 5 5 5 6 6 6 6 6 6 6 5 5 5 5 6 6 6 7 6 7 7 7 7 7 7 7 8 8 8 9 9 9 9 8 9 10 8 8 9 7 8 8 8 7
5 5 5 5 6 6 6 6 6 6 5 5 5 5 5 5 6 6 6 6 7 7 7 6 7 7 8 8 8 8 9 9 9 9 9 9 9 9 9 8 8 8 8 8 7
5 5 5 5 5 5 5 5 5 5 5 6 5 5 5 5 5 6 6 7 7 7 7 7 7 7 8 8 9 9 9 10 10 9 9 9 10 9 9 9 9 8 8 8 7
5 5 5 5 5 5 5 5 5 5 5 5 5 5 5 5 5 6 7 7 7 7 7 7 8 8 8 9 9 9 9 10 9 9 9 9 9 9 8 9 8 8 8 7 7
5 5 5 5 5 5 5 5 5 5 5 5 5 5 5 5 5 6 7 7 7 7 8 8 8 8 9 9 9 9 10 9 9 9 9 9 9 9 8 8 8 8 7 7 7
4 4 5 5 5 5 5 5 5 5 5 5 5 5 5 5 5 6 7 7 7 7 7 8 8 8 9 9 9 9 9 9 9 9 9 9 9 9 8 8 8 8 7 7 7
4 4 5 5 5 5 4 5 5 5 5 5 6 5 5 5 5 6 6 6 7 7 8 8 8 9 9 10 9 9 9 9 9 9 9 9 8 8 8 8 8 8 8 7 7
4 4 4 4 4 4 4 4 4 5 5 5 5 5 5 5 6 6 6 7 7 7 8 8 8 9 9 9 9 9 9 9 9 9 8 9 9 8 8 8 8 8 8 7 7
4 4 4 4 4 4 4 4 4 5 5 6 5 5 5 6 6 6 7 7 7 7 8 8 8 9 9 9 9 9 9 9 9 9 9 9 9 9 8 8 8 8 7 7 7
4 4 4 4 4 4 4 4 5 5 5 6 5 5 5 6 6 7 7 7 7 8 9 9 9 9 9 9 9 9 9 9 9 9 9 9 9 9 8 8 8 8 7 7 7
4 4 4 4 4 4 4 4 5 5 6 6 5 6 6 6 7 7 7 7 8 9 9 9 8 8 9 9 9 9 10 11 9 9 9 9 9 8 8 8 8 8 8 7 7
4 4 4 4 4 4 4 4 5 5 5 5 5 6 6 6 7 7 7 7 8 8 8 8 8 8 8 9 9 9 9 9 9 9 9 8 8 8 8 8 8 8 8 7 7
4 3 3 4 3 3 3 4 4 5 5 5 5 6 6 6 7 7 7 8 8 8 8 8 8 8 8 8 9 9 9 9 8 9 8 8 6 7 6 7 7 7 7 6 6
3 3 3 4 3 3 4 4 4 5 5 5 6 6 6 6 7 7 7 8 8 8 8 8 8 7 7 8 8 8 8 8 8 9 9 8 5 3 4 6 6 7 7 7 6
3 3 3 3 3 4 4 4 5 5 1 6 6 6 6 7 7 7 8 8 8 7 8 7 7 7 7 7 7 8 8 8 8 8 8 8 6 3 5 5 5 6 6 6 6
3 3 3 3 3 3 4 4 5 5 5 6 6 6 6 6 7 7 7 7 7 8 7 7 7 7 7 7 7 7 7 7 7 7 6 7 7 4 4 5 5 5 5 5 4
2 3 3 3 3 3 4 5 5 6 6 6 6 6 6 6 7 7 7 7 7 7 7 6 6 6 7 7 7 7 7 7 4 2 3 6 6 4 4 4 4 4 4 3 3
3 3 3 3 3 4 5 5 5 7 7 7 6 6 6 6 6 6 7 7 7 7 6 6 5 6 6 6 6 7 7 6 3 -0 4 5 3 3 4 4 3 2 2 2 2
2 2 2 3 3 4 5 5 6 6 7 7 7 6 6 7 6 6 6 7 6 7 7 6 5 6 6 6 6 6 6 6 6 4 4 4 3 3 3 3 2 1 2 1 1
2 2 3 3 3 4 4 5 6 7 7 7 7 7 6 6 6 6 6 5 6 6 6 6 6 5 5 6 6 6 6 6 6 1 0 3 3 4 3 3 2 2 2 1 0
2 2 3 3 3 4 4 5 6 6 7 7 7 7 7 7 6 6 6 5 5 6 6 6 6 5 5 5 5 5 5 6 5 4 0 -2 3 4 3 3 2 2 2 1 0
2 2 3 3 3 3 4 5 5 6 7 6 7 7 7 7 6 6 6 6 6 6 6 6 6 5 5 5 5 5 5 5 5 3 3 2 3 3 3 3 2 2 2 1 1
3 3 3 3 3 4 4 5 5 5 6 6 6 7 7 7 6 6 6 5 5 6 6 6 5 4 4 4 5 4 4 4 4 4 3 2 3 2 2 2 2 2 2 1 1
2 2 2 3 3 4 4 5 5 5 5 6 6 6 6 6 6 6 5 5 5 6 6 6 6 6 5 5 4 4 4 4 4 3 3 3 3 2 2 2 2 1 1 1 -0
2 2 3 3 3 4 3 4 4 5 5 5 5 5 5 5 5 5 5 5 5 5 6 6 6 5 4 4 4 4 4 3 3 3 3 3 3 3 2 1 1 1 0 -0 -1
2 2 3 3 3 4 4 4 4 4 5 5 5 5 5 5 5 5 5 5 5 5 5 6 6 5 4 4 4 4 3 4 3 3 3 3 3 2 1 1 0 -0 -1 -1 -1
2 3 3 4 3 3 4 4 4 4 4 4 4 4 4 4 4 4 5 5 5 5 5 5 5 4 4 4 3 3 4 4 3 3 2 2 2 2 1 0 -0 -1 -1 -1 -1
Height
3130 3128 3127 3125 3123 3124 3125 3126 3127 3128 3128 3128 3129 3130 3131 3132 3133 3134 3135 3138 3138 3139 3142 3144 3146 3149 3152 3155 3159 3161 3161 3161 3162 3164 3166 3169 3167 3169 3168 3168 3168 3171 3172 3173 3173
3124 3122 3120 3119 3119 3120 3121 3123 3123 3125 3126 3127 3128 3129 3130 3131 3132 3133 3135 3136 3138 3139 3143 3146 3148 3150 3153 3156 3158 3158 3159 3157 3159 3165 3166 3168 3168 3168 3169 3170 3170 3171 3171 3173 3176
3118 3115 3114 3114 3114 3116 3117 3119 3121 3122 3124 3125 3127 3129 3130 3132 3134 3134 3134 3136 3139 3140 3144 3148 3150 3152 3154 3156 3158 3159 3161 3159 3157 3161 3165 3166 3166 3168 3167 3168 3170 3170 3170 3173 3175
3112 3110 3109 3109 3110 3112 3115 3116 3119 3121 3123 3125 3127 3129 3130 3132 3135 3133 3134 3138 3141 3142 3146 3148 3151 3153 3154 3155 3158 3159 3160 3160 3161 3164 3165 3164 3165 3167 3168 3168 3169 3171 3171 3173 3175
3107 3105 3105 3106 3107 3110 3112 3114 3117 3119 3122 3124 3126 3129 3131 3133 3133 3134 3136 3139 3141 3143 3146 3149 3151 3152 3152 3154 3157 3159 3160 3161 3162 3164 3164 3165 3166 3167 3167 3168 3169 3170 3171 3174 3176
3102 3102 3102 3103 3105 3108 3110 3113 3115 3118 3121 3123 3126 3129 3131 3133 3133 3134 3137 3139 3141 3143 3145 3147 3150 3152 3150 3152 3157 3158 3158 3160 3161 3163 3164 3165 3166 3167 3168 3168 3169 3168 3171 3173 3175
3099 3099 3100 3101 3104 3107 3109 3112 3115 3118 3121 3124 3127 3130 3131 3132 3132 3134 3137 3139 3141 3143 3144 3146 3148 3149 3150 3150 3154 3157 3159 3159 3160 3162 3164 3164 3166 3167 3168 3168 3168 3169 3170 3173 3174
3097 3098 3099 3101 3104 3106 3109 3113 3116 3119 3122 3125 3128 3129 3130 3132 3133 3134 3137 3139 3141 3143 3145 3147 3151 3150 3151 3152 3155 3157 3159 3159 3160 3161 3162 3164 3164 3166 3168 3168 3167 3168 3171 3172 3173
3096 3096 3098 3101 3104 3107 3111 3115 3118 3120 3123 3126 3129 3130 3130 3130 3133 3135 3138 3140 3142 3145 3147 3148 3150 3150 3153 3154 3155 3157 3157 3157 3160 3161 3162 3163 3163 3165 3166 3169 3168 3170 3171 3172 3173
3095 3097 3099 3103 3106 3109 3113 3116 3119 3122 3125 3128 3130 3133 3131 3132 3133 3136 3139 3141 3144 3146 3148 3150 3150 3151 3153 3154 3155 3157 3157 3157 3158 3161 3162 3162 3163 3164 3166 3167 3168 3169 3170 3170 3170
3096 3098 3101 3105 3108 3112 3116 3119 3124 3127 3128 3130 3131 3130 3131 3133 3135 3138 3141 3142 3145 3147 3149 3151 3152 3153 3154 3155 3156 3157 3152 3148 3156 3160 3162 3162 3163 3163 3164 3166 3166 3167 3167 3166 3168
3098 3100 3104 3107 3111 3115 3118 3120 3123 3127 3129 3129 3130 3131 3132 3136 3136 3139 3141 3144 3145 3148 3149 3152 3152 3153 3153 3153 3154 3155 3154 3155 3158 3161 3163 3163 3163 3163 3164 3163 3165 3165 3165 3165 3166
3100 3103 3106 3110 3114 3116 3119 3122 3124 3126 3128 3130 3130 3132 3135 3136 3137 3139 3142 3144 3145 3146 3148 3150 3152 3152 3152 3153 3154 3153 3154 3156 3158 3160 3161 3161 3165 3164 3162 3162 3163 3164 3165 3166 3168
3102 3105 3107 3111 3116 3117 3120 3122 3124 3127 3130 3132 3131 3134 3136 3136 3139 3140 3142 3145 3145 3145 3147 3149 3150 3150 3152 3153 3153 3152 3154 3156 3157 3158 3160 3161 3169 3167 3163 3162 3163 3163 3165 3167 3169
3103 3105 3108 3112 3114 3118 3121 3122 3125 3127 3130 3133 3132 3134 3136 3138 3139 3140 3142 3144 3145 3146 3148 3150 3150 3151 3151 3152 3151 3153 3153 3153 3153 3154 3156 3158 3162 3167 3165 3162 3161 3162 3165 3168 3169
3102 3105 3108 3111 3115 3118 3120 3122 3126 3130 3128 3130 3131 3133 3136 3137 3138 3139 3142 3144 3145 3146 3147 3149 3149 3150 3150 3150 3150 3151 3152 3152 3153 3153 3154 3155 3155 3163 3162 3160 3161 3163 3164 3167 3167
3101 3104 3108 3112 3116 3118 3121 3124 3127 3125 3128 3130 3131 3133 3136 3137 3138 3139 3141 3143 3145 3146 3147 3149 3149 3149 3149 3150 3150 3150 3150 3151 3155 3157 3156 3154 3155 3157 3161 3161 3162 3162 3162 3163 3162
3100 3103 3107 3111 3115 3118 3121 3125 3125 3124 3126 3128 3130 3133 3136 3137 3138 3140 3142 3143 3144 3145 3147 3148 3151 3150 3149 3150 3151 3150 3150 3150 3157 3160 3154 3155 3157 3157 3159 3160 3161 3161 3161 3160 3160
3099 3102 3107 3111 3114 3118 3122 3123 3122 3124 3126 3128 3131 3133 3135 3137 3138 3140 3142 3142 3143 3144 3147 3147 3149 3149 3149 3150 3151 3150 3150 3152 3152 3154 3154 3157 3160 3160 3161 3160 3157 3158 3159 3160 3157
3097 3102 3107 3111 3114 3118 3121 3121 3122 3124 3125 3127 3129 3132 3133 3136 3138 3138 3140 3141 3141 3143 3144 3145 3147 3149 3150 3150 3150 3150 3152 3153 3152 3155 3160 3157 3157 3156 3157 3155 3155 3155 3156 3155 3153
3096 3101 3106 3110 3113 3117 3119 3121 3122 3124 3126 3128 3129 3131 3132 3134 3136 3137 3139 3140 3140 3141 3142 3144 3146 3150 3150 3150 3150 3151 3151 3152 3153 3153 3154 3160 3155 3153 3154 3153 3153 3153 3152 3152 3151
3093 3099 3104 3108 3112 3114 3118 3120 3121 3123 3125 3126 3128 3129 3129 3133 3134 3136 3137 3139 3139 3140 3141 3143 3145 3148 3150 3150 3151 3151 3151 3152 3152 3154 3152 3154 3155 3153 3153 3152 3152 3152 3151 3150 3149
3092 3097 3101 3105 3108 3112 3117 3118 3120 3122 3123 3125 3127 3128 3130 3131 3134 3135 3137 3138 3139 3140 3142 3143 3145 3147 3149 3152 3150 3150 3150 3150 3151 3152 3152 3153 3153 3151 3151 3150 3149 3146 3145 3144 3143
3090 3094 3099 3103 3107 3113 3115 3117 3118 3120 3121 3124 3126 3127 3129 3131 3132 3134 3136 3138 3139 3140 3141 3142 3142 3143 3145 3146 3147 3148 3148 3148 3148 3148 3148 3148 3149 3147 3146 3145 3143 3142 3142 3141 3140
3087 3092 3096 3098 3104 3110 3113 3116 3117 3119 3121 3123 3125 3126 3128 3130 3131 3133 3135 3137 3138 3139 3140 3141 3141 3142 3143 3144 3144 3145 3145 3145 3144 3145 3144 3144 3143 3143 3141 3140 3139 3137 3136 3135 3133
3086 3090 3094 3098 3105 3109 3111 3113 3115 3118 3121 3122 3124 3125 3126 3128 3130 3131 3133 3135 3136 3137 3138 3139 3140 3141 3142 3141 3142 3141 3141 3140 3141 3141 3140 3138 3137 3135 3136 3135 3135 3133 3132 3130 3127
3084 3087 3092 3096 3101 3106 3109 3112 3114 3117 3120 3120 3122 3124 3127 3129 3130 3131 3133 3134 3135 3136 3137 3138 3138 3139 3139 3139 3139 3139 3137 3137 3136 3136 3137 3134 3133 3132 3131 3131 3130 3129 3126 3123 3119
Wind_Speed
33 32 30 27 22 19 18 17 17 16 15 13 11 10 10 10 10 10 8 9 8 11 13 14 16 18 20 23 19 6 1 8 12 10 14 13 10 15 11 8 6 5 5 3 8
32 31 28 23 20 18 17 17 16 15 13 10 9 8 8 9 8 7 9 9 9 15 15 17 19 19 23 24 9 5 4 7 14 14 18 14 8 5 10 12 9 9 6 2 6
31 29 24 20 18 16 17 16 15 13 12 9 8 9 9 9 6 4 3 10 19 17 15 18 12 12 20 18 7 6 7 11 10 27 14 11 9 5 6 10 4 1 10 8 3
28 24 20 18 15 14 15 14 14 13 11 10 12 13 14 10 5 8 10 20 14 17 14 14 13 17 17 9 6 4 12 7 17 14 12 9 9 7 5 3 6 2 3 4 3
23 18 17 14 13 13 12 12 13 13 13 15 17 19 13 8 8 14 21 16 8 12 12 7 4 6 9 7 6 17 7 5 11 17 13 11 8 11 4 3 5 3 3 3 4
19 14 13 13 11 11 12 13 14 15 17 19 20 18 11 12 13 13 15 7 4 6 3 2 6 5 10 16 16 11 7 6 9 18 15 10 9 12 5 4 4 6 6 5 2
14 11 11 11 10 12 13 15 17 18 19 19 23 13 8 11 8 15 9 7 8 5 7 7 2 2 12 13 16 8 4 6 11 10 11 12 12 9 10 9 7 6 9 7 5
10 7 9 11 14 16 18 19 19 19 18 22 17 9 7 9 15 16 10 10 10 5 9 9 5 8 7 15 10 1 6 6 5 7 6 4 4 10 12 14 6 2 6 5 10
7 9 12 16 19 21 22 21 20 18 19 21 14 7 6 12 20 15 12 11 9 4 13 11 5 12 8 6 9 9 11 14 8 8 4 7 2 17 13 11 4 4 12 14 15
10 13 17 20 24 25 25 23 20 19 21 21 10 5 6 8 19 21 13 10 12 5 13 12 6 8 6 5 7 11 14 21 19 16 13 7 6 17 14 10 12 15 19 22 20
14 19 23 27 28 27 25 21 18 17 18 10 9 6 3 3 12 18 16 18 18 16 13 11 2 3 6 7 9 4 7 8 20 14 13 5 21 17 14 15 17 17 14 20 20
19 26 29 29 27 23 22 21 21 16 8 9 8 11 13 10 13 16 17 20 17 13 4 4 8 8 10 10 7 6 12 20 18 12 7 17 20 20 17 15 13 16 15 17 19
24 29 30 28 28 15 20 19 18 13 10 10 6 9 8 10 10 19 16 15 8 3 2 9 9 9 6 6 9 7 16 16 12 8 7 18 20 17 17 20 18 16 15 16 13
29 30 29 30 20 19 21 20 18 11 5 10 7 15 12 11 7 17 16 9 4 4 8 7 8 9 5 5 5 7 6 4 3 6 12 9 10 23 21 18 16 17 16 14 12
31 29 29 27 19 21 21 24 19 6 3 11 7 14 11 9 8 18 13 7 7 7 6 7 7 5 4 3 1 4 2 0 1 5 6 6 13 20 18 16 14 15 14 13 10
29 26 26 27 21 18 20 21 14 3 3 7 8 10 11 8 9 9 12 12 8 6 7 6 2 4 3 8 7 4 4 3 1 1 1 5 9 23 22 20 15 14 13 12 11
29 26 25 26 21 17 18 17 5 2 13 10 15 13 12 9 12 13 14 15 9 11 10 8 5 7 7 8 8 2 2 2 3 2 4 3 4 7 16 15 13 16 12 9 11
28 27 24 21 21 17 21 11 3 7 6 12 17 13 13 12 11 15 10 9 9 8 16 5 4 2 5 7 5 7 6 4 4 2 3 5 5 6 16 15 11 6 3 4 18
26 26 25 22 20 20 19 7 6 7 15 16 13 16 13 12 10 10 7 6 8 8 12 7 4 6 9 8 5 4 9 7 4 2 2 5 13 12 11 10 12 11 14 4 9
25 25 26 23 19 23 18 6 5 6 14 7 19 14 11 14 11 8 4 4 10 8 9 9 9 10 10 11 10 10 6 2 3 2 1 3 9 8 16 13 13 9 8 12 15
24 24 24 23 21 23 18 8 6 9 12 13 15 10 9 12 14 10 6 6 8 10 9 11 7 9 7 5 6 5 3 3 2 1 4 2 3 7 18 13 13 14 9 6 12
25 22 22 22 23 25 18 6 6 12 15 13 11 9 16 16 16 14 8 7 7 8 14 10 11 9 7 6 6 3 3 1 1 2 2 4 4 11 18 17 12 14 14 14 22
24 21 19 24 26 27 10 7 10 7 16 15 12 13 14 14 10 7 7 8 8 9 13 14 9 8 4 4 4 3 3 3 3 4 6 3 3 16 13 14 16 18 21 23 22
28 20 20 24 25 26 11 10 10 12 11 16 13 12 15 13 11 8 10 9 9 11 11 10 13 7 7 5 5 7 6 4 8 10 11 16 12 20 21 21 21 20 17 19 22
25 17 20 26 28 27 13 9 13 15 13 13 15 13 15 15 13 13 11 12 10 11 12 9 9 8 8 9 9 11 10 12 12 10 12 13 15 22 20 19 18 19 20 22 23
20 18 15 12 23 25 17 13 7 17 14 12 10 15 15 14 14 14 11 12 10 13 13 11 9 9 9 9 8 9 10 10 13 17 18 17 15 18 20 21 19 20 23 23 27
23 17 18 26 22 23 20 14 13 9 9 11 12 14 12 12 10 9 8 7 6 9 10 10 9 8 5 9 8 5 10 6 8 11 13 14 18 19 20 21 20 21 23 27 32
Wind_Direction
296 295 291 287 278 271 267 259 251 247 249 248 239 238 231 222 218 214 205 187 178 163 162 153 153 161 163 156 160 171 1 178 193 164 173 188 175 137 138 163 125 95 291 4 155
296 295 290 283 271 264 257 250 244 241 238 230 228 217 205 198 198 188 185 187 174 143 135 135 139 154 162 165 195 218 343 246 186 183 177 174 210 181 200 187 210 247 250 233 164
296 294 287 276 266 259 248 240 235 233 224 210 198 183 175 161 144 122 216 172 144 130 134 136 146 163 181 181 193 250 157 104 157 193 195 168 188 193 238 223 282 76 249 254 234
297 291 280 268 258 247 240 231 223 216 207 186 168 169 155 144 134 97 143 139 137 125 125 139 139 160 176 182 180 208 142 124 134 153 174 176 164 169 167 257 257 337 39 39 207
292 285 275 259 246 234 228 217 207 195 187 164 165 155 141 115 108 103 134 132 122 153 149 139 159 199 187 193 162 163 176 149 151 160 170 161 135 177 166 106 170 230 240 301 67
285 276 264 244 227 215 203 189 184 181 168 165 165 151 134 124 134 136 142 137 178 162 16 198 151 292 252 246 165 170 187 238 234 174 160 174 170 179 189 233 256 259 232 277 21
279 260 241 217 199 191 174 173 171 163 158 164 161 146 137 139 161 156 129 118 123 118 127 170 188 34 115 131 155 149 282 135 140 143 183 194 186 177 182 217 253 254 259 260 259
256 231 211 188 176 165 161 159 153 151 157 163 152 140 138 165 163 157 148 159 165 184 166 186 151 120 133 127 132 98 185 194 164 130 128 145 235 183 199 205 266 140 247 265 249
212 186 175 170 162 153 146 144 144 149 156 165 156 144 133 160 170 158 171 191 168 178 188 198 128 129 130 183 195 204 219 234 206 199 177 187 64 190 206 207 231 221 234 230 236
181 172 160 158 147 142 141 142 143 146 150 154 155 197 160 128 177 177 153 174 181 176 173 182 166 148 198 173 186 223 251 245 237 208 212 232 258 181 182 198 203 215 221 224 222
167 161 152 146 144 143 143 143 140 140 145 139 137 109 108 98 168 157 164 150 161 160 146 169 210 258 203 224 214 289 337 220 179 185 214 186 156 183 181 200 216 216 217 223 222
163 152 147 146 141 138 139 146 143 138 122 142 137 125 110 125 153 176 162 154 153 157 192 239 215 194 192 218 235 95 117 131 152 167 198 159 139 158 174 186 193 200 202 204 210
159 150 148 142 134 134 149 142 142 134 132 137 167 151 147 154 145 157 163 162 157 233 249 200 184 173 172 208 219 155 148 152 158 149 119 148 124 161 159 170 182 183 189 191 194
159 154 150 146 148 149 155 151 147 138 160 168 158 162 150 148 167 168 167 161 106 169 158 130 152 162 195 188 177 162 128 152 193 198 158 168 138 134 149 164 196 205 211 220 216
164 161 155 158 154 155 157 158 154 130 81 143 142 171 154 151 125 170 176 164 145 163 183 150 160 184 204 207 287 163 211 229 252 216 217 146 138 158 174 174 189 206 217 224 230
170 166 166 172 163 159 166 160 166 241 156 146 186 160 147 127 139 152 164 140 117 147 107 126 179 231 217 125 102 131 156 206 195 244 20 20 161 181 176 195 199 226 244 251 297
175 173 177 182 182 173 168 156 179 194 148 155 138 133 139 120 116 162 166 161 158 128 139 122 83 87 143 129 86 102 150 69 32 18 207 38 107 173 194 200 227 231 251 292 316
180 184 183 186 186 169 157 166 183 140 145 160 153 140 148 146 162 156 164 177 169 157 158 155 145 89 78 151 97 76 71 139 166 171 275 68 97 123 183 196 169 155 250 290 300
186 191 195 191 177 170 166 191 114 103 150 145 154 154 144 163 143 167 152 160 180 171 182 146 115 83 106 134 163 99 94 86 110 114 98 101 119 139 164 176 224 255 280 219 235
191 196 199 190 173 175 171 131 112 122 165 185 161 179 194 181 160 180 156 165 161 155 156 151 122 128 115 110 99 116 100 84 48 94 62 149 179 196 192 215 211 191 205 210 220
191 198 198 192 180 183 187 129 143 155 163 173 177 201 191 168 184 190 181 191 181 182 176 159 155 148 137 121 126 139 106 76 101 77 153 145 265 199 189 204 226 226 242 228 231
188 194 193 190 190 189 183 179 191 183 180 190 204 171 171 178 199 189 195 200 191 183 167 164 149 138 113 108 139 147 148 176 183 209 144 108 189 178 214 216 228 249 255 267 279
181 185 186 190 193 187 169 169 206 229 204 196 183 175 179 175 171 185 211 201 191 173 166 165 156 137 150 164 158 157 193 291 208 217 208 162 215 198 212 241 249 263 277 268 260
169 168 179 189 194 180 160 183 200 186 190 203 185 189 184 205 208 209 205 199 195 188 180 179 174 197 185 164 184 198 213 256 247 227 233 230 253 229 243 261 264 267 261 262 266
169 174 189 188 188 179 181 201 210 193 198 214 212 220 205 194 215 216 203 205 197 188 191 191 194 185 191 215 236 251 247 237 250 256 255 277 270 254 246 246 259 262 263 262 265
173 184 187 197 179 187 189 202 206 207 208 214 207 191 208 216 213 207 204 203 204 200 198 199 199 197 221 238 234 257 253 249 248 252 266 270 254 234 240 251 257 254 258 265 280
168 165 172 171 169 187 192 198 207 203 200 206 192 191 199 211 212 215 215 227 221 210 202 201 198 210 230 220 261 228 199 219 210 227 244 253 271 274 253 258 261 268 278 285 301